Regional Weather Roundup
Issued by NWS

Home | Current Version | Previous Version | Graphics & Text | Print | Product List | Glossary Off
Versions: 1 2 3 4 5 6 7 8 9 10 11 12 13 14 15 16 17 18 19 20 21 22 23 24 25 26 27 28 29 30 31 32 33 34 35 36 37 38 39 40 41 42 43 44 45 46 47 48 49 50

000
ASUS43 KDMX 270907
RWRIA

WEATHER ROUNDUP FOR IOWA
NATIONAL WEATHER SERVICE DES MOINES IA
400 AM CDT THU AUG 27 2015

NOTE: "FAIR" INDICATES FEW OR NO CLOUDS BELOW 12,000 FEET WITH NO
SIGNIFICANT WEATHER AND/OR OBSTRUCTIONS TO VISIBILITY.

* - THESE STATIONS ARE NOT NWS STATIONS...THUS NOT UNDER NWS
QUALITY CONTROL.  THEY ALSO DO NOT REPORT WEATHER SUCH
AS PRECIPITATION OR FOG.

IAZ001>003-012>014-020>022-031>034-043>046-271000-
   NORTHWEST IOWA

CITY           SKY/WX    TMP DP  RH WIND       PRES   REMARKS
CARROLL *      CLOUDY    54  54 100 SE5       30.08S
CHEROKEE *     MOCLDY    57  57 100 CALM      30.07F
DENISON *      CLOUDY    61  54  77 S9        30.06R
LE MARS *      CLEAR     63  61  94 SE5       30.05S
ORANGE CITY *  CLEAR     61  57  88 SE5       30.05F
SHELDON *      PTCLDY    59  57  94 SE7       30.05F
SIOUX CITY     CLOUDY    62  58  86 SE9       30.03F
SPENCER        PTCLDY    57  52  83 SE3       30.08S
STORM LAKE *   CLEAR     57  55  94 SE6       30.09S
$$

IAZ055>058-069>071-079>083-090>094-271000-
   SOUTHWEST IOWA

CITY           SKY/WX    TMP DP  RH WIND       PRES   REMARKS
ATLANTIC *     MOCLDY    57  54  88 S5        30.09R
AUDUBON *      CLEAR     55  52  88 CALM      30.10R
CLARINDA *     CLEAR     59  55  88 SW3       30.10R
COUNCIL BLFS * PTCLDY    63  59  88 S9G15     30.06F
CRESTON *      CLEAR     57  54  88 SE7       30.12S
HARLAN  *      CLOUDY    59  59 100 CALM      30.11R
LAMONI         CLEAR     61  54  77 SE6       30.11R
RED OAK *      PTCLDY    63  55  77 CALM      30.08R
SHENANDOAH *   CLOUDY    63  59  88 SE5       30.08R
$$

IAZ047>049-059>061-072>074-084-271000-
   CENTRAL IOWA

CITY           SKY/WX    TMP DP  RH WIND       PRES   REMARKS
AMES           CLEAR     52  51  97 E3        30.11R
ANKENY *       CLEAR     52  52 100 CALM      30.11R
CHARITON *     MOCLDY    55  54  94 S6        30.12R
DES MOINES     PTCLDY    60  53  77 SE5       30.11R
GRINNELL*      CLEAR     57  52  82 SE6       30.12S
KNOXVILLE *    CLEAR     57  54  88 S5        30.11R
MARSHALLTOWN   CLEAR     53  51  93 CALM      30.13R
PELLA *        CLEAR     57  57 100 SE5       30.12S
PERRY *          N/A     54  52  94 SE6       30.10R
$$

IAZ004>006-015-016-023>025-035-036-271000-
   NORTH CENTRAL IOWA

CITY           SKY/WX    TMP DP  RH WIND       PRES   REMARKS
ALGONA *       PTCLDY    59  54  82 SE9       30.10R
CLARION *      CLEAR     54  50  87 SE6       30.12R
ESTHERVILLE    CLEAR     55  53  93 S7        30.08S
FORT DODGE *   CLEAR     57  52  82 SE3       30.11R
MASON CITY     MOCLDY    52  51  97 SE5       30.14R
FOREST CITY *  PTCLDY    52  52 100 CALM      30.12F
IOWA FALLS *     N/A     54  52  94 CALM      30.14R
$$

IAZ007>011-017>019-026>030-037>042-050>054-066-271000-
   NORTHEAST IOWA

CITY           SKY/WX    TMP DP  RH WIND       PRES   REMARKS
CEDAR RAPIDS   CLEAR     52  52 100 SE3       30.12S
CHARLES CITY * CLOUDY    54  54 100 S3        30.15R
CLINTON *      CLEAR     57  54  88 S9        30.17F
DECORAH *      CLOUDY    54  50  87 CALM      30.13R
DUBUQUE        CLEAR     55  54  96 S5        30.15S
MONTICELLO *   CLEAR     50  48  93 CALM      30.14R
OELWEIN *      CLEAR     52  50  93 E5        30.14R
WATERLOO       CLEAR     51  49  92 N3        30.13R
$$

IAZ064-065-067-068-078-271000-
   EAST CENTRAL IOWA

CITY           SKY/WX    TMP DP  RH WIND       PRES   REMARKS
DAVENPORT      CLEAR     56  54  93 SE7       30.15S
IOWA CITY      CLEAR     56  54  93 S3        30.14S
MT. PLEASANT * CLEAR     55  52  88 SE3       30.14R
MUSCATINE *    CLEAR     52  52 100 CALM      30.15R FOG
QUAD CITIES    CLEAR     55  53  93 E6        30.15S
$$

IAZ062-063-075>077-085>089-095>099-271000-
   SOUTHEAST IOWA

CITY           SKY/WX    TMP DP  RH WIND       PRES   REMARKS
BURLINGTON     CLEAR     57  55  93 S3        30.14S
FAIRFIELD *    CLEAR     57  52  82 SE6       30.13R
FORT MADISON * CLEAR     57  55  94 S6        30.15R
KEOKUK *       CLEAR     59  55  88 S5        30.13R
OSKALOOSA *      N/A     54  52  94 SE6       30.12S
CENTERVILLE *  CLEAR     54  54 100 SE6       30.13F
OTTUMWA        CLEAR     55  53  93 S5        30.12R
WASHINGTON *     N/A    N/A N/A N/A MISG        N/A
$$

ABBREVIATIONS USED IN REMARKS
   TC - TEMPERATURES IN CELSIUS
  WCI - WIND CHILL INDEX
   HX - HEAT INDEX
  VSB - VISIBILITY
$$



USA.gov is the U.S. government's official web portal to all federal, state and local government web resources and services.